EW8081 Weather Reports


time (UTC)temp
C
wind
direction
speed
KPH
gust
KPH
rain 1hr
cm
rain 24hr
cm
rain mn
cm
humidity
%
barometer
mb
20260509090007 15 209 0.0 8.0 0.00 0.00 0.00 75 1023.9
20260509084511 15 182 3.2 8.0 0.00 0.00 0.00 74 1023.8
20260509083004 15 207 1.6 6.4 0.00 0.00 0.00 73 1023.7
20260509081502 16 195 3.2 11.3 0.00 0.00 0.00 73 1023.6
20260509080001 16 198 1.6 6.4 0.00 0.00 0.00 71 1023.4
20260509074607 16 197 1.6 11.3 0.00 0.00 0.00 71 1023.2
20260509073103 16 203 1.6 9.7 0.00 0.00 0.00 70 1023.1
20260509071608 17 203 1.6 11.3 0.00 0.00 0.00 67 1022.8
20260509070100 17 193 4.8 9.7 0.00 0.00 0.00 65 1022.8
20260509064617 18 185 3.2 9.7 0.00 0.00 0.00 62 1022.5
20260509063058 19 188 6.4 11.3 0.00 0.00 0.00 58 1022.4
20260509061622 22 187 4.8 11.3 0.00 0.00 0.00 49 1022.2
20260509060057 22 178 4.8 9.7 0.00 0.00 0.00 49 1022.0
20260509054556 23 190 4.8 12.9 0.00 0.00 0.00 48 1022.0
20260509053054 23 167 3.2 11.3 0.00 0.00 0.00 50 1021.9
20260509051552 23 189 4.8 14.5 0.00 0.00 0.00 49 1022.0
20260509050050 23 164 6.4 16.1 0.00 0.00 0.00 48 1021.8
20260509044549 23 172 4.8 16.1 0.00 0.00 0.00 47 1021.8
20260509043056 23 147 8.0 14.5 0.00 0.00 0.00 47 1021.8
20260509041548 23 184 6.4 19.3 0.00 0.00 0.00 49 1021.9
20260509040047 23 204 6.4 16.1 0.00 0.00 0.00 47 1021.8
20260509034553 23 194 4.8 16.1 0.00 0.00 0.00 47 1021.7
20260509033051 22 155 8.0 17.7 0.00 0.00 0.00 47 1021.7
20260509031543 23 178 8.0 14.5 0.00 0.00 0.00 46 1022.0
20260509030043 23 193 9.7 24.1 0.00 0.00 0.00 47 1022.2
20260509024542 23 183 6.4 14.5 0.00 0.00 0.00 46 1022.4
20260509023039 23 209 6.4 17.7 0.00 0.00 0.00 46 1022.6
20260509021540 24 196 6.4 16.1 0.00 0.00 0.00 46 1022.7
20260509020036 25 207 6.4 14.5 0.00 0.00 0.00 43 1022.8
20260509014535 25 229 3.2 14.5 0.00 0.00 0.00 40 1023.0
20260509013033 24 201 6.4 12.9 0.00 0.00 0.00 42 1023.1
20260509011530 23 300 8.0 17.7 0.00 0.00 0.00 44 1023.1
20260509010033 23 255 3.2 11.3 0.00 0.00 0.00 44 1023.0
20260509004533 22 286 3.2 14.5 0.00 0.00 0.00 46 1023.2
20260509003022 21 281 9.7 17.7 0.00 0.00 0.00 47 1023.3
20260509001524 21 295 6.4 16.1 0.00 0.00 0.00 47 1023.5
20260509000016 20 233 6.4 19.3 0.00 0.00 0.00 50 1023.4
20260508234513 20 301 8.0 19.3 0.00 0.00 0.00 51 1023.5
20260508233010 19 355 11.3 22.5 0.00 0.00 0.00 52 1023.3
20260508231508 18 324 4.8 17.7 0.00 0.00 0.00 55 1023.3
20260508230004 18 323 9.7 20.9 0.00 0.00 0.00 57 1023.3
20260508224600 17 300 9.7 24.1 0.00 0.00 0.00 58 1023.4
20260508223056 16 274 8.0 20.9 0.00 0.00 0.00 62 1023.2
20260508221552 15 309 11.3 22.5 0.00 0.00 0.00 67 1023.1
20260508220049 13 304 11.3 25.7 0.00 0.00 0.00 71 1023.1
20260508214600 13 304 9.7 20.9 0.00 0.00 0.00 72 1023.0
20260508213043 12 314 9.7 19.3 0.00 0.00 0.00 73 1022.7
20260508211541 12 301 8.0 20.9 0.00 0.00 0.00 73 1022.5
20260508210041 12 303 8.0 17.7 0.00 0.00 0.00 73 1022.4
20260508204537 12 330 11.3 17.7 0.00 0.00 0.00 72 1022.2
20260508203033 13 291 9.7 19.3 0.00 0.00 0.00 71 1022.0
20260508201532 13 300 11.3 19.3 0.00 0.00 0.00 70 1021.7
20260508200039 13 294 9.7 19.3 0.00 0.00 0.00 69 1021.8
20260508194527 13 297 6.4 14.5 0.00 0.00 0.00 69 1021.5
20260508193025 13 307 9.7 17.7 0.00 0.00 0.00 69 1021.3
20260508191524 13 299 11.3 17.7 0.00 0.00 0.00 69 1021.0
20260508190044 13 324 6.4 19.3 0.00 0.00 0.00 69 1021.0
20260508184530 13 282 6.4 17.7 0.00 0.00 0.00 69 1021.0
20260508183031 13 294 8.0 17.7 0.00 0.00 0.00 69 1020.8
20260508181520 13 284 8.0 17.7 0.00 0.00 0.00 69 1020.6
20260508180018 13 301 9.7 20.9 0.00 0.00 0.00 69 1020.4
20260508174516 13 299 9.7 19.3 0.00 0.00 0.00 68 1020.5
20260508173014 13 298 8.0 17.7 0.00 0.00 0.00 68 1020.5
20260508171517 13 315 8.0 19.3 0.00 0.00 0.00 68 1020.4
20260508170013 13 284 9.7 27.4 0.00 0.00 0.00 68 1020.5
20260508164520 13 316 12.9 22.5 0.00 0.00 0.00 68 1020.5
20260508163014 13 326 11.3 20.9 0.00 0.00 0.00 68 1020.6
20260508161510 13 314 9.7 19.3 0.00 0.00 0.00 68 1020.5
20260508160005 13 310 8.0 22.5 0.00 0.00 0.00 68 1020.4
20260508154504 13 299 9.7 22.5 0.00 0.00 0.00 68 1020.4
20260508153002 13 272 8.0 17.7 0.00 0.00 0.00 68 1020.5
20260508151602 13 336 8.0 20.9 0.00 0.00 0.00 67 1020.5
20260508150057 13 284 9.7 17.7 0.00 0.00 0.00 66 1020.5
20260508144655 13 320 8.0 19.3 0.00 0.00 0.00 66 1020.4
20260508143058 13 297 12.9 19.3 0.00 0.00 0.00 66 1020.3
20260508141603 13 302 8.0 17.7 0.00 0.00 0.00 66 1020.5
20260508140048 13 293 9.7 20.9 0.00 0.00 0.00 65 1020.5
20260508134550 14 294 12.9 24.1 0.00 0.00 0.00 64 1020.3
20260508133046 14 311 12.9 22.5 0.00 0.00 0.00 63 1020.1
20260508131557 14 309 12.9 24.1 0.00 0.00 0.00 63 1020.1
20260508130044 14 314 9.7 20.9 0.00 0.00 0.00 64 1020.3
20260508124543 14 319 4.8 16.1 0.00 0.00 0.00 63 1020.3
20260508123043 14 325 8.0 20.9 0.00 0.00 0.00 63 1020.3
20260508121543 14 324 8.0 19.3 0.00 0.00 0.00 63 1020.3
20260508120058 15 283 9.7 19.3 0.00 0.00 0.00 63 1020.3
20260508114553 14 302 8.0 19.3 0.00 0.00 0.00 63 1020.3
20260508113039 15 291 8.0 19.3 0.00 0.00 0.00 62 1020.0
20260508111541 15 319 12.9 20.9 0.00 0.00 0.00 62 1019.9
20260508110036 15 311 12.9 22.5 0.00 0.00 0.00 62 1019.6
20260508104538 15 284 9.7 19.3 0.00 0.00 0.00 62 1019.5
20260508103051 15 305 9.7 22.5 0.00 0.00 0.00 61 1019.3
20260508101532 15 283 9.7 20.9 0.00 0.00 0.00 60 1019.1
20260508100031 15 328 11.3 20.9 0.00 0.00 0.00 59 1018.9
20260508094530 15 290 11.3 25.7 0.00 0.00 0.00 59 1018.8
20260508093037 15 304 11.3 25.7 0.00 0.00 0.00 58 1018.6
20260508091532 15 337 16.1 32.2 0.00 0.00 0.00 57 1018.5